Wind_Speed
7 9 11 11 11 12 12 11 10 9 9 8 9 9 10 12 14 14 12 17 18 21 22 24 28 27 28 27 26 27 33 30 28 20 24 23 22 22
5 5 6 12 14 13 12 10 8 7 8 8 9 11 13 16 19 19 19 20 23 25 27 28 29 31 31 32 23 30 36 30 37 31 23 24 26 23
1 1 3 6 10 11 10 9 8 9 9 11 10 10 11 13 16 17 19 21 25 29 33 33 33 32 33 35 35 31 32 35 33 35 30 27 23 25
4 3 5 6 7 7 6 5 5 5 6 7 8 10 13 15 17 18 20 22 26 26 31 33 36 38 42 37 37 35 34 34 36 38 43 30 26 20
6 7 7 8 7 5 4 3 3 4 6 8 11 11 13 16 19 23 27 28 28 27 29 34 38 38 38 39 41 39 38 36 37 39 41 31 25 22
8 8 8 4 2 3 2 3 4 5 5 6 8 13 17 20 20 23 26 31 31 34 33 37 35 41 44 46 48 50 48 45 41 44 38 36 21 23
11 8 6 5 4 2 2 0 2 5 8 10 12 14 17 21 25 27 26 28 30 34 37 38 41 42 47 51 56 55 46 42 44 41 36 41 24 18
10 8 7 7 6 6 7 7 9 11 12 14 13 14 18 22 27 31 33 36 36 37 40 38 45 45 48 54 57 63 58 50 39 49 47 45 38 22
10 8 9 10 11 13 13 14 14 17 19 21 20 21 23 29 32 35 39 41 40 42 44 41 44 46 49 52 59 66 65 61 64 57 53 44 51 32
13 13 13 16 18 20 21 19 18 20 24 27 29 28 30 33 37 42 43 45 40 41 45 48 46 48 51 51 55 62 65 61 53 51 47 54 53 38
18 17 17 20 22 23 22 22 23 26 30 34 36 38 40 43 45 46 46 46 46 45 48 51 50 54 52 50 53 57 60 62 58 53 55 52 53 37
22 21 22 24 26 28 27 27 28 32 34 36 39 41 42 44 45 50 51 51 54 53 48 58 58 57 50 50 53 55 57 60 61 58 53 49 39 28
15 20 24 27 26 28 29 30 33 37 39 39 41 42 43 45 46 48 47 51 55 56 54 61 54 51 52 55 55 52 53 57 57 62 53 48 40 34
20 20 23 27 30 32 33 34 37 41 42 40 41 43 47 47 45 46 46 50 49 48 49 54 53 53 53 48 49 44 56 59 58 64 63 56 53 46
31 31 32 32 33 36 37 37 38 40 41 42 44 47 48 49 47 51 52 56 55 52 51 47 47 47 50 51 52 51 54 59 62 62 60 66 53 45
38 37 39 40 39 40 39 40 41 42 43 45 48 50 50 49 51 54 56 59 57 55 56 58 56 55 47 50 53 60 64 64 62 58 54 70 51 64
50 50 47 45 45 45 44 44 45 47 47 50 52 51 51 53 54 55 58 60 58 57 59 58 60 58 51 54 63 67 67 69 69 51 47 58 53 48
51 49 46 47 46 46 46 46 48 49 50 52 53 52 54 56 57 58 59 58 56 58 62 61 55 53 55 59 64 65 70 72 56 41 57 48 45 58
50 48 47 45 44 44 46 47 48 49 51 52 53 54 57 59 61 62 58 57 56 58 62 54 49 53 60 61 60 62 64 57 37 42 47 41 58 45
46 45 45 44 43 43 45 46 48 49 51 52 54 58 59 62 64 59 56 54 53 58 55 48 50 51 51 55 60 63 58 41 35 31 38 48 57 43
42 42 43 44 46 48 48 49 50 51 53 56 58 60 63 65 60 59 55 54 54 55 51 52 56 55 49 43 51 55 49 35 26 23 29 44 39 38
45 46 47 49 51 52 52 53 54 56 57 58 61 63 61 62 62 57 56 56 53 48 48 54 55 53 50 50 50 49 49 40 29 23 31 32 33 38
50 52 52 54 55 57 57 57 58 59 62 64 63 62 62 60 61 58 57 51 49 47 45 50 53 45 45 48 47 43 41 41 27 19 17 28 34 26
Wind_Direction
62 90 101 96 104 109 112 112 106 97 86 66 50 31 21 25 28 38 34 23 20 20 17 14 10 12 19 17 15 8 10 358 359 340 333 336 328 333
38 78 106 109 106 111 115 114 102 83 74 60 52 44 43 35 31 22 15 7 6 7 4 4 3 0 354 356 1 358 352 357 3 357 336 332 326 325
333 132 131 127 118 113 110 110 98 73 61 54 43 29 18 6 4 5 4 1 2 360 358 360 354 352 355 358 356 351 356 356 357 356 340 332 316 318
246 207 170 164 142 129 111 95 83 72 44 31 16 3 353 350 348 348 357 355 355 358 349 347 346 350 349 345 346 340 345 344 350 349 353 329 317 309
226 199 179 166 161 146 138 108 63 23 9 348 341 348 348 345 348 344 349 348 347 342 338 338 338 338 342 337 335 333 339 348 343 344 342 340 321 304
198 194 178 181 147 146 135 60 31 12 7 347 346 346 341 334 335 332 340 335 337 337 337 337 333 329 331 330 329 329 326 327 329 333 339 339 319 298
187 185 179 183 202 197 179 296 346 321 323 324 325 328 324 325 322 324 327 324 331 331 327 329 325 327 324 324 319 315 318 315 319 325 327 328 316 296
192 204 224 239 245 262 283 304 315 316 311 313 319 318 314 314 312 321 323 323 327 323 320 323 316 318 316 317 313 311 316 308 325 326 320 319 314 286
212 229 252 263 272 280 291 301 303 308 310 313 316 318 322 315 320 320 317 320 321 320 316 317 314 315 313 311 310 313 318 316 319 312 313 315 317 302
233 250 264 275 281 289 296 300 302 310 310 312 319 318 316 315 315 316 319 318 321 318 318 319 316 314 310 309 308 309 311 311 312 309 314 319 317 310
244 254 263 271 283 290 295 300 306 309 308 313 318 321 321 319 317 316 316 319 323 323 320 315 315 312 311 311 308 307 307 307 308 307 308 308 311 307
251 252 258 270 276 287 291 295 302 302 304 311 316 318 319 317 315 317 322 324 322 323 321 315 317 313 315 314 310 307 305 305 307 307 310 309 310 300
262 267 270 272 282 286 292 296 296 298 304 306 308 311 309 310 316 318 320 321 320 322 318 316 316 316 314 310 309 309 307 305 306 301 295 301 292 304
266 268 270 272 277 283 287 291 295 299 302 304 306 305 305 312 315 315 318 319 317 318 309 307 311 310 306 306 304 307 308 301 301 300 282 297 276 276
265 270 271 274 282 278 282 286 294 296 297 300 301 302 305 311 314 315 319 322 321 324 324 317 312 310 309 310 305 309 309 306 306 291 289 290 281 282
269 269 271 276 279 282 285 286 291 294 295 297 297 300 307 309 311 316 319 320 319 320 322 319 317 322 316 317 318 322 316 307 302 290 287 278 258 273
267 272 274 272 274 279 281 284 287 289 292 294 297 303 307 307 311 315 316 316 317 318 319 317 317 324 321 324 322 319 316 309 306 298 272 272 275 262
276 279 279 278 279 280 282 283 284 286 290 294 299 303 304 306 310 314 313 314 315 317 318 319 315 323 325 325 322 319 310 309 307 278 286 274 264 264
276 276 278 279 279 278 278 279 283 287 291 295 298 301 303 305 309 311 313 315 318 319 320 318 320 322 323 324 326 317 317 310 291 288 283 255 251 259
271 273 275 278 279 282 283 285 287 289 291 294 298 300 302 306 308 311 314 316 317 317 318 323 325 323 326 332 328 322 323 311 292 287 263 260 251 242
273 275 277 279 281 283 284 286 288 290 292 295 298 300 303 305 308 312 315 317 315 312 317 323 326 323 327 334 330 324 332 332 333 277 257 241 243 224
273 274 276 279 282 284 285 287 289 291 293 296 298 301 303 306 308 312 314 313 312 313 317 317 326 322 330 335 335 335 339 350 333 281 283 244 213 194
277 280 282 282 283 285 287 288 290 291 293 296 299 302 305 307 308 310 313 312 310 309 317 319 321 323 330 332 332 333 337 338 333 311 258 230 210 183
Height
5952 5952 5952 5952 5952 5952 5953 5954 5953 5954 5955 5955 5955 5954 5953 5952 5951 5950 5948 5947 5944 5941 5938 5935 5931 5928 5924 5922 5919 5915 5909 5904 5899 5894 5891 5887 5882 5879
5952 5952 5952 5952 5952 5952 5953 5953 5954 5955 5955 5955 5955 5954 5953 5952 5951 5950 5948 5945 5943 5940 5936 5933 5930 5926 5922 5920 5916 5911 5905 5900 5895 5891 5887 5883 5880 5876
5951 5952 5951 5951 5951 5952 5953 5953 5954 5954 5955 5955 5954 5953 5952 5950 5949 5948 5946 5943 5941 5937 5933 5929 5925 5922 5917 5915 5911 5906 5901 5897 5892 5887 5883 5879 5875 5873
5949 5950 5951 5951 5951 5951 5952 5953 5953 5953 5953 5952 5952 5951 5949 5948 5946 5945 5942 5940 5937 5935 5931 5927 5923 5918 5913 5909 5905 5901 5897 5894 5888 5882 5878 5873 5869 5866
5947 5948 5949 5950 5951 5951 5952 5952 5953 5953 5952 5951 5950 5949 5948 5946 5944 5941 5939 5937 5935 5932 5929 5925 5920 5915 5911 5906 5902 5897 5893 5889 5884 5879 5873 5866 5862 5861
5944 5946 5947 5948 5948 5949 5950 5950 5950 5951 5950 5950 5949 5947 5945 5943 5942 5940 5938 5935 5932 5927 5924 5921 5916 5911 5907 5902 5898 5892 5886 5884 5880 5874 5868 5863 5858 5856
5943 5944 5945 5946 5947 5947 5947 5948 5949 5948 5948 5947 5946 5945 5943 5941 5938 5937 5934 5931 5929 5924 5919 5916 5910 5908 5902 5896 5891 5885 5880 5874 5867 5866 5862 5857 5853 5849
5942 5943 5943 5944 5945 5945 5945 5946 5946 5945 5944 5943 5943 5942 5940 5937 5933 5931 5928 5925 5924 5920 5912 5912 5903 5902 5896 5889 5882 5875 5869 5863 5859 5857 5855 5851 5845 5840
5941 5941 5942 5942 5943 5943 5943 5944 5943 5942 5940 5940 5940 5938 5935 5932 5929 5926 5921 5918 5916 5912 5905 5903 5898 5893 5887 5880 5872 5864 5860 5857 5851 5843 5841 5839 5838 5833
5938 5939 5940 5940 5940 5940 5939 5939 5938 5937 5934 5932 5931 5932 5930 5927 5923 5919 5914 5910 5909 5904 5896 5888 5888 5881 5876 5872 5864 5855 5847 5843 5841 5836 5833 5830 5827 5825
5935 5936 5937 5936 5936 5935 5935 5933 5933 5932 5929 5926 5924 5923 5921 5918 5913 5908 5906 5899 5897 5894 5888 5879 5877 5868 5863 5860 5854 5847 5838 5831 5828 5826 5821 5820 5816 5813
5932 5933 5932 5932 5931 5930 5929 5928 5928 5927 5924 5922 5921 5917 5915 5912 5906 5899 5893 5887 5880 5879 5878 5863 5860 5853 5848 5849 5843 5835 5828 5821 5814 5812 5808 5807 5804 5802
5926 5927 5927 5927 5926 5925 5923 5922 5922 5920 5918 5916 5916 5914 5911 5907 5900 5893 5887 5879 5871 5867 5863 5851 5848 5841 5835 5830 5826 5821 5817 5808 5802 5796 5791 5794 5793 5791
5921 5920 5920 5920 5919 5917 5916 5916 5914 5911 5909 5907 5906 5905 5900 5896 5894 5889 5884 5877 5872 5867 5859 5846 5836 5830 5824 5821 5816 5812 5802 5797 5792 5784 5775 5776 5772 5778
5911 5912 5911 5911 5910 5910 5909 5907 5906 5903 5901 5898 5896 5894 5890 5886 5883 5875 5870 5863 5857 5852 5844 5835 5827 5820 5811 5806 5800 5793 5788 5782 5774 5768 5764 5763 5763 5766
5902 5902 5902 5902 5901 5901 5900 5898 5896 5894 5891 5888 5885 5882 5879 5876 5871 5864 5857 5851 5845 5840 5832 5822 5814 5808 5801 5792 5782 5775 5772 5762 5757 5747 5746 5749 5740 5747
5891 5892 5892 5892 5891 5891 5890 5888 5886 5883 5880 5877 5873 5871 5868 5863 5859 5854 5847 5840 5833 5827 5822 5813 5804 5796 5788 5780 5768 5759 5749 5738 5735 5726 5718 5723 5724 5731
5880 5880 5880 5880 5880 5879 5878 5877 5874 5872 5869 5866 5862 5860 5856 5851 5846 5842 5836 5828 5822 5815 5807 5800 5791 5784 5776 5768 5756 5743 5728 5717 5708 5707 5704 5709 5714 5717
5868 5868 5869 5868 5867 5866 5865 5864 5862 5860 5857 5854 5851 5848 5843 5838 5833 5829 5822 5815 5808 5801 5795 5786 5778 5768 5761 5751 5742 5729 5715 5701 5696 5691 5690 5691 5696 5703
5857 5856 5857 5857 5856 5855 5853 5851 5849 5847 5844 5841 5839 5835 5830 5825 5820 5815 5808 5802 5797 5791 5785 5775 5768 5761 5749 5736 5724 5712 5701 5687 5680 5677 5682 5687 5689 5697
5846 5846 5845 5844 5843 5842 5840 5839 5836 5834 5832 5829 5825 5820 5816 5811 5805 5800 5794 5789 5784 5779 5773 5765 5757 5750 5742 5730 5719 5706 5694 5682 5672 5670 5676 5681 5686 5690
5834 5833 5833 5832 5830 5829 5827 5825 5823 5821 5818 5815 5810 5806 5801 5796 5790 5785 5780 5775 5770 5766 5760 5754 5747 5738 5728 5718 5710 5701 5693 5682 5679 5679 5680 5681 5684 5685
5820 5820 5819 5818 5816 5815 5813 5811 5809 5806 5802 5798 5794 5790 5785 5780 5775 5770 5766 5761 5757 5753 5747 5741 5736 5728 5720 5712 5705 5699 5694 5689 5685 5680 5681 5682 5681 5683